一网星座-0018星 (ONEWEB-0018 )

导读

ONEWEB-0018是英国OneWeb星座组网卫星,于2020年3月21日搭乘俄罗斯联盟号火箭发射入轨,属于OneWeb低轨卫星互联网星座的组成部分。该星座目标是为全球提供高速宽带互联网接入,这一批次共发射34颗卫星,ONEWEB-0018是其中之一。卫星入轨后,助力OneWeb初步完成低轨卫星网络布局,后续为推动全球网络覆盖奠定基础。

基本信息
目录编号:
45434
目录名称:
ONEWEB-0018
国际标识:
2020-020L
轨道中心:
EARTH
卫星名称:
一网星座-0018星
卫星全名:
一网星座-0018星 (ONEWEB-0018 )
卫星状态:
在轨 (已飞行2283 天)
发射日期:
2020-03-21 UTC
国别 :
英国 (GB)
星等 :
--
轨道信息
数据来源 国际轨道数据 AOE轨道数据
星历时间 2026-06-20T16:18:09+0800
16小时前
查看轨道信息
2026-06-19T09:00:00+0800
1天前
查看轨道信息
半长轴 7595.818km 7595.835km
偏心率 0.0001432 0.000133
轨道倾角 87.889° 87.887°
近地点辐角 81.658° 76.194°
升交点赤经 20.437° 20.695°
平近点角 278.471° 249.823°
近地点 1216.593km 1216.687km
远地点 1218.769km 1218.709km
周期 109.805分钟 109.805分钟
每日圈数 13.114175 13.114132
详细信息
平衡模式:
三轴稳定
覆盖范围:
全球
运营商:
一网卫星公司
运营商所在国:
英国
制造商(研发单位):
一网卫星公司
制造商所在国:
英国
使用方式:
暂无
卫星简介
OneWeb卫星网络由648颗重约125公斤的微型卫星组成,运行在1200公里的轨道上。 每颗卫星都能够提供至少每秒8千兆位的吞吐量,以使用其高吞吐量的Ku频段有效载荷为家庭和移动平台提供互联网接入。该卫星仍在工作。
2D轨道图
3D轨道图
轨道高度分析图
轨道倾角分析图
轨道综合分析图
查看轨道综合分析图